This is the latest recevied weather packets stored in our database for station/object NY3Q. If no packets are shown the sender has not sent any weather packets the latest 10 day(s).
| Time | Temp. | Humidity | Pressure | Rain* | Wind** | Luminosity | Snow |
|---|---|---|---|---|---|---|---|
| 1777821086 | 21.11° C | 63% | 1020.1 hPa | 0 mm | - | 530 W/m² | - |
| 1777820783 | 21.11° C | 62% | 1019.8 hPa | 0 mm | - | 511 W/m² | - |
| 1777820479 | 21.11° C | 61% | 1020 hPa | 0 mm | - | 511 W/m² | - |
| 1777820176 | 21.11° C | 63% | 1020.1 hPa | 0 mm | - | 530 W/m² | - |
| 1777819874 | 20.56° C | 65% | 1020 hPa | 0 mm | - | 500 W/m² | - |
| 1777819571 | 20.56° C | 64% | 1020 hPa | 0 mm | - | 121 W/m² | - |
| 1777819268 | 20.56° C | 66% | 1019.9 hPa | 0 mm | - | 484 W/m² | - |
| 1777818965 | 20.56° C | 65% | 1020 hPa | 0 mm | - | 454 W/m² | - |
| 1777818661 | 20.56° C | 64% | 1019.7 hPa | 0 mm | - | 481 W/m² | - |
| 1777818359 | 21.11° C | 64% | 1019.8 hPa | 0 mm | - | 469 W/m² | - |
| 1777818055 | 21.11° C | 68% | 1019.6 hPa | 0 mm | - | 476 W/m² | - |
| 1777817752 | 20.56° C | 71% | 1019.5 hPa | 0 mm | - | 431 W/m² | - |
| 1777817450 | 20.56° C | 73% | 1019.4 hPa | 0 mm | - | 468 W/m² | - |
| 1777817145 | 20° C | 73% | 1019.5 hPa | 0 mm | - | 437 W/m² | - |
| 1777816843 | 20° C | 74% | 1019.6 hPa | 0 mm | - | 401 W/m² | - |
| 1777816540 | 20° C | 73% | 1019.2 hPa | 0 mm | - | 365 W/m² | - |
| 1777816237 | 20.56° C | 74% | 1019.5 hPa | 0 mm | - | 366 W/m² | - |
| 1777815935 | 20° C | 77% | 1019.1 hPa | 0 mm | - | 359 W/m² | - |
| 1777815632 | 20° C | 78% | 1019.2 hPa | 0 mm | - | 377 W/m² | - |
| 1777815329 | 19.44° C | 79% | 1019.3 hPa | 0 mm | - | 309 W/m² | - |
| 1777815026 | 19.44° C | 80% | 1019.1 hPa | 0 mm | - | 293 W/m² | - |
| 1777814722 | 19.44° C | 83% | 1019.1 hPa | 0 mm | - | 277 W/m² | - |
| 1777814419 | 19.44° C | 85% | 1019.1 hPa | 0 mm | - | 275 W/m² | - |
| 1777814116 | 18.89° C | 87% | 1018.9 hPa | 0 mm | - | 260 W/m² | - |
| 1777813813 | 18.89° C | 90% | 1018.9 hPa | 0 mm | - | 235 W/m² | - |
* Rain latest hour (hover to see other rain measurements)
** Current wind speed in m/s (hover to see current wind gust speed)